[[{"header":{"parameterUnit":"m.s-1","parameterCategory":1,"la1":30.2991,"la2":30.254,"lo1":-89.0895,"lo2":-89.0444,"dy":0.0017,"dx":0.0017,"nx":28,"ny":28,"refTime":"2024-02-23T09:00:00:Z","depth":0,"parameterNumber":2,"parameterNumberName":"U-component_of_WINDS"},"data":[0,0,0,0,0,0,0,0,0,0,0,0,0,0,0,0,0,0,0,0,0,0,0,0,0,0,0,0,0,0,0,0,0,0,0,0,0,0,0,0,0,0,0,0,0,0,0,0,0,0,0,0,0,0,0,0,0,0,3.0744,3.0744,0,3.0809,3.081,3.0811,3.0777,3.0775,3.0774,3.0772,3.0839,3.0843,3.0846,0,0,0,0,0,0,0,0,0,0,0,0,0,3.059,3.0593,3.0743,3.0744,3.0745,3.0809,3.081,3.0811,3.0778,3.0775,3.0773,3.0771,3.0838,3.0842,3.0846,0,0,0,0,0,0,0,0,0,0,0,0,0,3.0656,3.0594,3.0743,3.0736,3.0736,3.0809,3.081,3.0811,3.0778,3.0775,3.0773,3.077,3.0837,3.0842,3.0847,3.093,0,0,3.0862,3.0865,0,0,0,0,0,0,0,0,3.0653,3.0662,3.0736,3.0737,3.0737,3.0782,3.078,3.0851,3.0779,3.0762,3.0772,3.0769,3.0822,3.0829,3.0847,3.0933,3.0936,3.0863,3.0866,3.0868,3.087,0,0,0,0,0,0,0,3.0648,3.0659,3.0769,3.0738,3.0738,3.073,3.0737,3.0794,3.0806,3.0763,3.0761,3.0769,3.0822,3.0842,3.0848,3.0937,3.0863,3.0867,3.087,3.0872,3.1097,3.11,0,0,0,0,0,0,3.0644,3.0655,3.0767,3.0771,3.0688,3.0735,3.0742,3.077,3.0805,3.0808,3.0771,3.0768,3.0834,3.0842,3.085,3.0951,3.0868,3.0873,3.0876,3.1094,3.1098,3.1101,0,0,0,0,0,0,3.0641,3.0654,3.0765,3.0713,3.0726,3.074,3.0772,3.0773,3.0793,3.0811,3.0814,3.0789,3.0833,3.0843,3.0911,3.0953,3.0875,3.088,3.1091,3.1096,3.11,3.1153,0,0,0,0,0,0,3.0636,3.0653,3.0685,3.0714,3.0729,3.0824,3.0775,3.0776,3.0802,3.0797,3.0829,3.0831,3.0831,3.0904,3.0916,3.0958,3.0884,3.1087,3.1093,3.1098,3.1147,3.1158,3.1168,0,0,0,0,0,3.0631,3.0697,3.0686,3.07,3.0769,3.0827,3.0835,3.0834,3.0805,3.0837,3.0849,3.083,3.0946,3.0911,3.0925,3.0969,3.1085,3.1091,3.1098,3.1143,3.1156,3.1167,0,0,0,0,0,0,3.0672,3.07,3.0689,3.0766,3.0794,3.0821,3.0861,3.0848,3.0885,3.0879,3.0876,3.0883,3.0954,3.0968,3.0928,3.1052,3.1011,3.1021,3.104,3.1053,3.1063,3.1058,3.0888,0,0,0,0,0,3.069,3.0734,3.0757,3.0823,3.0837,3.0847,3.0872,3.0869,3.0898,3.0909,3.0926,3.0955,3.0998,3.1027,3.1067,3.1149,3.1156,3.1187,3.1197,3.1205,3.1214,3.1259,3.1273,3.1123,3.1123,3.1123,0,0,3.0727,3.0748,3.0776,3.0831,3.0853,3.0899,3.0857,3.0908,3.0942,3.0917,3.0982,3.0996,3.1028,3.1104,3.1138,3.1118,3.1257,3.1214,3.122,3.1224,3.1267,3.1282,3.1294,3.1127,3.1126,3.1126,0,0,3.0819,3.0839,3.0897,3.092,3.0953,3.0959,3.0973,3.1002,3.101,3.1076,3.1058,3.11,3.1173,3.1197,3.1219,3.1322,3.1306,3.1336,3.1389,3.1433,3.1445,3.1456,3.1493,3.1507,3.1344,3.1344,3.1344,0,3.0861,3.093,3.0928,3.0981,3.1006,3.0985,3.1044,3.1066,3.1111,3.1129,3.1106,3.1199,3.1219,3.13,3.1326,3.1344,3.136,3.1332,3.1444,3.1454,3.1464,3.15,3.1514,3.1347,3.1347,3.1347,3.1346,0,3.0981,3.103,3.1072,3.1116,3.1146,3.1201,3.1208,3.1239,3.1233,3.1242,3.131,3.1334,3.1379,3.1398,3.1393,3.148,3.1466,3.1444,3.1402,3.1482,3.1515,3.1529,3.1352,3.1351,3.135,3.1349,0,0,3.11,3.1143,3.1159,3.1179,3.1215,3.1252,3.1307,3.1352,3.1378,3.141,3.1457,3.152,3.15,3.1525,3.1523,3.1562,3.1643,3.1534,3.1535,3.1554,3.1741,3.1757,3.1773,3.1633,3.1635,3.1637,3.1738,0,3.1194,3.129,3.129,3.1379,3.1424,3.1406,3.1454,3.1482,3.1492,3.1532,3.1543,3.1589,3.1559,3.1574,3.1612,3.1625,3.168,3.1618,3.1676,3.1678,3.1669,3.179,3.1808,3.1902,3.1751,3.1753,3.1755,0,3.1317,3.1354,3.1447,3.1478,3.1497,3.154,3.1581,3.162,3.1651,3.1656,3.1685,3.1677,3.1733,3.169,3.1769,3.1726,3.175,3.1761,3.1764,3.1769,3.1721,3.1799,3.1931,3.1946,3.1775,3.1774,3.1772,0,3.1395,3.1468,3.1533,3.1551,3.1588,3.1619,3.1635,3.1664,3.1692,3.1728,3.1746,3.1789,3.1812,3.1846,3.185,3.1818,3.1929,3.1886,3.1935,3.1935,3.1959,3.1957,3.2097,3.1975,3.1974,3.1974,3.1974,0,3.1501,3.1559,3.1568,3.1609,3.1673,3.1674,3.1738,3.1752,3.1778,3.1821,3.1808,3.1849,3.1852,3.1894,3.1898,3.1963,3.1973,3.1979,3.1979,3.198,3.198,3.1996,3.1989,3.1978,3.1977,3.1976,3.1976,0,3.1598,3.1607,3.1677,3.1707,3.1716,3.1762,3.1788,3.1826,3.1836,3.1891,3.1904,3.1919,3.1968,3.1975,3.2033,3.2035,3.2113,3.2107,3.2103,3.2102,3.215,3.2146,3.2305,3.2326,3.219,3.2191,3.2193,0,3.1665,3.1709,3.1744,3.1772,3.1791,3.1836,3.1864,3.1866,3.1896,3.1936,3.197,3.2018,3.2056,3.2136,3.2152,3.2196,3.2191,3.2244,3.2197,3.2197,3.2192,3.219,3.2194,3.2253,3.2254,3.2255,3.2256,0,3.1783,3.1785,3.1826,3.1869,3.1903,3.1937,3.1969,3.1993,3.2,3.2034,3.2084,3.2114,3.2174,3.2222,3.2266,3.2284,3.2272,3.2271,3.2285,3.2286,3.2282,3.2285,3.2127,3.2267,3.2266,3.2265,3.2265,3.2264,3.1867,3.1906,3.1937,3.1983,3.2008,3.2038,3.2077,3.2091,3.2133,3.2182,3.2181,3.2236,3.2267,3.2326,3.2347,3.239,3.2373,3.2393,3.2398,3.2403,3.2408,3.2275,3.2398,3.2398,3.2398,3.2398,3.2397,0,3.1985,3.2004,3.2047,3.2092,3.2129,3.2115,3.215,3.2182,3.2231,3.2261,3.2299,3.2358,3.2405,3.2425,3.2471,3.2503,3.2498,3.2515,3.2512,3.2517,3.242,3.2404,3.2517,3.2517,3.2517,3.2517,3.2517,3.2517,3.205,3.2115,3.2122,3.2199,3.2218,3.2273,3.2294,3.2322,3.2347,3.2412,3.2451,3.2465,3.2491,3.254,3.2582,3.2587,3.2605,3.2624,3.2626,3.2536,3.2523,3.2512,3.2496,3.2628,3.2628,3.272,3.272,3.2721]},{"header":{"parameterUnit":"m.s-1","parameterCategory":1,"la1":30.2991,"la2":30.254,"lo1":-89.0895,"lo2":-89.0444,"dy":0.0017,"dx":0.0017,"nx":28,"ny":28,"refTime":"2024-02-23T09:00:00:Z","depth":0,"parameterNumber":3,"parameterNumberName":"V-component_of_WINDS"},"data":[0,0,0,0,0,0,0,0,0,0,0,0,0,0,0,0,0,0,0,0,0,0,0,0,0,0,0,0,0,0,0,0,0,0,0,0,0,0,0,0,0,0,0,0,0,0,0,0,0,0,0,0,0,0,0,0,0,0,-1.2138,-1.2138,0,-1.2162,-1.2162,-1.2162,-1.2138,-1.2137,-1.2136,-1.2135,-1.2161,-1.2162,-1.2164,0,0,0,0,0,0,0,0,0,0,0,0,0,-1.2075,-1.2076,-1.2138,-1.2138,-1.2139,-1.2162,-1.2162,-1.2162,-1.2138,-1.2137,-1.2135,-1.2134,-1.216,-1.2162,-1.2164,0,0,0,0,0,0,0,0,0,0,0,0,0,-1.2101,-1.2077,-1.2138,-1.2129,-1.2129,-1.2162,-1.2162,-1.2162,-1.2138,-1.2136,-1.2135,-1.2134,-1.216,-1.2162,-1.2164,-1.2208,0,0,-1.2171,-1.2173,0,0,0,0,0,0,0,0,-1.21,-1.2103,-1.213,-1.213,-1.2129,-1.2145,-1.2149,-1.2178,-1.2138,-1.2134,-1.2135,-1.2133,-1.2157,-1.2159,-1.2167,-1.2209,-1.221,-1.2172,-1.2173,-1.2174,-1.2175,0,0,0,0,0,0,0,-1.2098,-1.2102,-1.2147,-1.2131,-1.213,-1.2125,-1.2127,-1.2154,-1.2154,-1.2135,-1.2133,-1.2136,-1.2156,-1.2165,-1.2167,-1.221,-1.2172,-1.2174,-1.2175,-1.2176,-1.2291,-1.2292,0,0,0,0,0,0,-1.2097,-1.2101,-1.2147,-1.2148,-1.2111,-1.2127,-1.213,-1.2142,-1.2153,-1.2153,-1.2137,-1.2135,-1.2161,-1.2165,-1.2168,-1.2221,-1.2174,-1.2176,-1.2178,-1.2289,-1.2291,-1.2293,0,0,0,0,0,0,-1.2095,-1.2101,-1.2146,-1.2124,-1.2129,-1.213,-1.2144,-1.2143,-1.2151,-1.2155,-1.2155,-1.2146,-1.216,-1.2165,-1.2198,-1.2221,-1.2177,-1.218,-1.2287,-1.229,-1.2292,-1.2325,0,0,0,0,0,0,-1.2094,-1.2101,-1.2116,-1.2125,-1.2131,-1.2175,-1.2145,-1.2144,-1.2155,-1.2152,-1.2163,-1.2163,-1.216,-1.2195,-1.2201,-1.2224,-1.2181,-1.2285,-1.2288,-1.2291,-1.2322,-1.2329,-1.2334,0,0,0,0,0,-1.2092,-1.2125,-1.2117,-1.2123,-1.215,-1.2176,-1.2179,-1.2174,-1.2157,-1.2173,-1.2176,-1.2163,-1.2218,-1.2198,-1.2205,-1.2229,-1.2284,-1.2288,-1.2291,-1.232,-1.2328,-1.2334,0,0,0,0,0,0,-1.212,-1.2126,-1.2117,-1.2154,-1.2165,-1.2172,-1.2192,-1.2182,-1.2198,-1.2195,-1.2188,-1.219,-1.2226,-1.2231,-1.2209,-1.2272,-1.2248,-1.2253,-1.2268,-1.2275,-1.2281,-1.2279,-1.2183,0,0,0,0,0,-1.213,-1.215,-1.2154,-1.2187,-1.2192,-1.2191,-1.2202,-1.2197,-1.2208,-1.2213,-1.2218,-1.2229,-1.2249,-1.2263,-1.2281,-1.2323,-1.2326,-1.2343,-1.2349,-1.2354,-1.2358,-1.2382,-1.239,-1.2305,-1.2305,-1.2305,0,0,-1.2152,-1.2158,-1.2171,-1.2192,-1.22,-1.2221,-1.2195,-1.2219,-1.2235,-1.2216,-1.2248,-1.2253,-1.2265,-1.2304,-1.2321,-1.2309,-1.2383,-1.2359,-1.2362,-1.2364,-1.2387,-1.2395,-1.2402,-1.2307,-1.2307,-1.2307,0,0,-1.2203,-1.2209,-1.2237,-1.2245,-1.2257,-1.2256,-1.2263,-1.2272,-1.2274,-1.2306,-1.2292,-1.2312,-1.2346,-1.2356,-1.2366,-1.2423,-1.2412,-1.2429,-1.246,-1.2484,-1.249,-1.2496,-1.2517,-1.2525,-1.2433,-1.2433,-1.2434,0,-1.2229,-1.226,-1.2253,-1.2277,-1.2288,-1.2272,-1.2301,-1.2309,-1.2327,-1.2335,-1.2321,-1.2365,-1.2372,-1.2413,-1.2427,-1.2435,-1.2444,-1.2427,-1.249,-1.2496,-1.2501,-1.2521,-1.2529,-1.2436,-1.2435,-1.2435,-1.2435,0,-1.2292,-1.2313,-1.2335,-1.2352,-1.2365,-1.2392,-1.239,-1.2404,-1.2398,-1.2399,-1.2433,-1.2441,-1.2462,-1.2471,-1.2466,-1.2512,-1.2505,-1.2491,-1.2466,-1.2511,-1.253,-1.2538,-1.2438,-1.2438,-1.2437,-1.2437,0,0,-1.236,-1.2373,-1.2381,-1.2389,-1.2402,-1.2419,-1.2446,-1.2466,-1.2478,-1.2492,-1.2515,-1.2545,-1.2532,-1.2543,-1.2539,-1.256,-1.2605,-1.2543,-1.2543,-1.2555,-1.2658,-1.2669,-1.2678,-1.2598,-1.26,-1.2601,-1.2658,0,-1.2412,-1.2457,-1.2452,-1.2496,-1.2517,-1.2503,-1.2526,-1.2537,-1.254,-1.2559,-1.2562,-1.2583,-1.2565,-1.2571,-1.2591,-1.2595,-1.2626,-1.2591,-1.2621,-1.2622,-1.2618,-1.2688,-1.2699,-1.2752,-1.2665,-1.2666,-1.2667,0,-1.2478,-1.2493,-1.2539,-1.2549,-1.2558,-1.2579,-1.2597,-1.2615,-1.2628,-1.2628,-1.2641,-1.2634,-1.2663,-1.2638,-1.2678,-1.2654,-1.2666,-1.2671,-1.2673,-1.2675,-1.2647,-1.2693,-1.2769,-1.2777,-1.2678,-1.2677,-1.2677,0,-1.2524,-1.2556,-1.2588,-1.2595,-1.2608,-1.2623,-1.2629,-1.2641,-1.2653,-1.267,-1.2678,-1.2698,-1.2709,-1.2725,-1.2724,-1.2706,-1.2766,-1.274,-1.2768,-1.2768,-1.2781,-1.278,-1.286,-1.2788,-1.2788,-1.2788,-1.2788,0,-1.2582,-1.2611,-1.2609,-1.2628,-1.2661,-1.2656,-1.2688,-1.2693,-1.2703,-1.2725,-1.2714,-1.2735,-1.2732,-1.2753,-1.2752,-1.2786,-1.2791,-1.2793,-1.2793,-1.2794,-1.2794,-1.2802,-1.2799,-1.279,-1.2789,-1.2789,-1.2789,0,-1.2639,-1.2639,-1.2673,-1.2682,-1.2685,-1.2709,-1.2718,-1.2737,-1.2739,-1.2766,-1.2772,-1.2776,-1.28,-1.2801,-1.2828,-1.2828,-1.287,-1.2865,-1.2866,-1.2865,-1.2893,-1.289,-1.2981,-1.2993,-1.2913,-1.2913,-1.2914,0,-1.2676,-1.2698,-1.271,-1.2723,-1.2731,-1.2752,-1.2765,-1.2761,-1.2775,-1.2792,-1.281,-1.2833,-1.2852,-1.2892,-1.2897,-1.2919,-1.2915,-1.2946,-1.2919,-1.292,-1.2917,-1.2916,-1.2919,-1.2951,-1.2952,-1.2953,-1.2953,0,-1.2743,-1.2742,-1.2761,-1.278,-1.2795,-1.281,-1.2824,-1.2836,-1.2834,-1.2851,-1.2875,-1.289,-1.2918,-1.2942,-1.2964,-1.2971,-1.2963,-1.2962,-1.297,-1.2972,-1.2971,-1.2973,-1.2881,-1.296,-1.2959,-1.2959,-1.2958,-1.2958,-1.2792,-1.2811,-1.2823,-1.2844,-1.2854,-1.2868,-1.2887,-1.2891,-1.2911,-1.2934,-1.2931,-1.2959,-1.2973,-1.3001,-1.3011,-1.3033,-1.3023,-1.3034,-1.3037,-1.304,-1.3043,-1.2967,-1.3037,-1.3037,-1.3037,-1.3037,-1.3036,0,-1.2859,-1.2866,-1.2886,-1.2905,-1.2923,-1.2912,-1.2927,-1.2943,-1.2967,-1.2981,-1.2999,-1.3028,-1.3052,-1.306,-1.3083,-1.31,-1.3097,-1.3106,-1.3105,-1.3107,-1.305,-1.3042,-1.3108,-1.3108,-1.3108,-1.3108,-1.3108,-1.3108,-1.2896,-1.2928,-1.2929,-1.2967,-1.2974,-1.3,-1.301,-1.3023,-1.3034,-1.3067,-1.3086,-1.3091,-1.3102,-1.3127,-1.3148,-1.315,-1.316,-1.3171,-1.3172,-1.3118,-1.3111,-1.3104,-1.3096,-1.3173,-1.3173,-1.3227,-1.3227,-1.3228]}]]